TimeEDT,TemperatureF,Dew PointF,Humidity,Sea Level PressureIn,VisibilityMPH,Wind Direction,Wind SpeedMPH,Gust SpeedMPH,PrecipitationIn,Events,Conditions,WindDirDegrees,DateUTC
12:54 AM,69.1,66.9,93,29.97,6.0,Calm,Calm,-,N/A,,Overcast,0,2013-06-04 04:54:00
1:21 AM,66.2,66.2,100,29.97,1.8,Calm,Calm,-,N/A,,Scattered Clouds,0,2013-06-04 05:21:00
1:27 AM,66.2,66.2,100,29.97,0.8,Calm,Calm,-,N/A,,Scattered Clouds,0,2013-06-04 05:27:00
1:32 AM,66.2,66.2,100,29.98,1.2,Calm,Calm,-,N/A,,Partly Cloudy,0,2013-06-04 05:32:00
1:35 AM,66.2,66.2,100,29.98,2.0,Calm,Calm,-,N/A,,Partly Cloudy,0,2013-06-04 05:35:00
1:39 AM,66.2,66.2,100,29.98,1.0,Calm,Calm,-,N/A,,Mist,0,2013-06-04 05:39:00
1:46 AM,66.2,66.2,100,29.98,0.5,Calm,Calm,-,N/A,Fog,Fog,0,2013-06-04 05:46:00
1:51 AM,66.2,66.2,100,29.98,1.0,Calm,Calm,-,N/A,,Partly Cloudy,0,2013-06-04 05:51:00
1:54 AM,66.0,66.0,100,29.98,0.8,Calm,Calm,-,N/A,,Partly Cloudy,0,2013-06-04 05:54:00
2:03 AM,66.2,64.4,94,29.98,1.5,Calm,Calm,-,N/A,,Scattered Clouds,0,2013-06-04 06:03:00
2:05 AM,66.2,64.4,94,29.98,3.0,Calm,Calm,-,N/A,,Mostly Cloudy,0,2013-06-04 06:05:00
2:54 AM,66.0,62.1,87,29.97,9.0,Calm,Calm,-,N/A,,Mostly Cloudy,0,2013-06-04 06:54:00
3:54 AM,66.0,57.9,75,29.98,10.0,North,3.5,-,N/A,,Mostly Cloudy,350,2013-06-04 07:54:00
4:54 AM,64.0,54.0,70,29.99,10.0,North,5.8,-,N/A,,Clear,360,2013-06-04 08:54:00
5:54 AM,63.0,52.0,67,30.02,10.0,Variable,4.6,-,N/A,,Partly Cloudy,0,2013-06-04 09:54:00
6:54 AM,63.0,51.1,65,30.06,10.0,Variable,4.6,-,N/A,,Scattered Clouds,0,2013-06-04 10:54:00
7:54 AM,64.0,48.9,58,30.07,10.0,NNW,6.9,-,N/A,,Partly Cloudy,340,2013-06-04 11:54:00
8:54 AM,66.0,48.0,52,30.10,10.0,North,8.1,-,N/A,,Partly Cloudy,10,2013-06-04 12:54:00
9:54 AM,68.0,46.9,47,30.12,10.0,Variable,6.9,-,N/A,,Partly Cloudy,0,2013-06-04 13:54:00
10:54 AM,70.0,46.0,42,30.12,10.0,North,5.8,-,N/A,,Clear,350,2013-06-04 14:54:00
11:54 AM,72.0,43.0,35,30.13,10.0,Variable,6.9,-,N/A,,Clear,0,2013-06-04 15:54:00
12:54 PM,73.0,44.1,35,30.12,10.0,Variable,5.8,-,N/A,,Clear,0,2013-06-04 16:54:00
1:54 PM,75.0,43.0,32,30.11,10.0,Variable,4.6,-,N/A,,Clear,0,2013-06-04 17:54:00
2:54 PM,75.9,44.1,32,30.10,10.0,Variable,3.5,-,N/A,,Clear,0,2013-06-04 18:54:00
3:54 PM,78.1,45.0,31,30.09,10.0,Variable,4.6,-,N/A,,Clear,0,2013-06-04 19:54:00
4:54 PM,77.0,43.0,30,30.09,10.0,Calm,Calm,-,N/A,,Clear,0,2013-06-04 20:54:00
5:54 PM,77.0,44.1,31,30.08,10.0,Calm,Calm,-,N/A,,Clear,0,2013-06-04 21:54:00
6:54 PM,75.0,44.1,33,30.08,10.0,WNW,4.6,-,N/A,,Clear,300,2013-06-04 22:54:00
7:54 PM,68.0,53.1,59,30.09,10.0,Calm,Calm,-,N/A,,Clear,0,2013-06-04 23:54:00
8:54 PM,62.1,53.1,72,30.10,10.0,Calm,Calm,-,N/A,,Clear,0,2013-06-05 00:54:00
9:54 PM,57.9,52.0,81,30.13,10.0,Calm,Calm,-,N/A,,Clear,0,2013-06-05 01:54:00
10:54 PM,55.9,51.1,84,30.16,10.0,Calm,Calm,-,N/A,,Clear,0,2013-06-05 02:54:00
11:54 PM,55.0,51.1,86,30.16,10.0,Calm,Calm,-,N/A,,Clear,0,2013-06-05 03:54:00